owner,sensor,date,latitude,longitude,vertical_datum,sea_water_practical_salinity,qcFlag 
NERRS,ioos:station:NOAA.NERRS:gndbcwq:1,2011-08-01T06:00:00Z,30.3836,-88.4364,0.0,11.6,1111122 
NERRS,ioos:station:NOAA.NERRS:gndbcwq:1,2011-08-01T07:00:00Z,30.3836,-88.4364,0.0,12.2,1111122 
NERRS,ioos:station:NOAA.NERRS:gndbcwq:1,2011-08-01T08:00:00Z,30.3836,-88.4364,0.0,12.7,1111122 
NERRS,ioos:station:NOAA.NERRS:gndbcwq:1,2011-08-01T09:00:00Z,30.3836,-88.4364,0.0,10.3,1111122 
NERRS,ioos:station:NOAA.NERRS:gndbcwq:1,2011-08-01T10:00:00Z,30.3836,-88.4364,0.0,9.7,1111122 
NERRS,ioos:station:NOAA.NERRS:gndbcwq:1,2011-08-01T11:00:00Z,30.3836,-88.4364,0.0,12.2,1111122 
NERRS,ioos:station:NOAA.NERRS:gndbcwq:1,2011-08-01T12:00:00Z,30.3836,-88.4364,0.0,12.6,1111122 
NERRS,ioos:station:NOAA.NERRS:gndbcwq:1,2011-08-01T13:00:00Z,30.3836,-88.4364,0.0,14.9,1111122 
NERRS,ioos:station:NOAA.NERRS:gndbcwq:1,2011-08-01T14:00:00Z,30.3836,-88.4364,0.0,16.6,1111122 
NERRS,ioos:station:NOAA.NERRS:gndbcwq:1,2011-08-01T15:00:00Z,30.3836,-88.4364,0.0,17.2,1111122 
NERRS,ioos:station:NOAA.NERRS:gndbcwq:1,2011-08-01T16:00:00Z,30.3836,-88.4364,0.0,18.2,1111122 
NERRS,ioos:station:NOAA.NERRS:gndbcwq:1,2011-08-01T17:00:00Z,30.3836,-88.4364,0.0,18.4,1111122 
NERRS,ioos:station:NOAA.NERRS:gndbcwq:1,2011-08-01T18:00:00Z,30.3836,-88.4364,0.0,19.4,1111122 
NERRS,ioos:station:NOAA.NERRS:gndbcwq:1,2011-08-01T19:00:00Z,30.3836,-88.4364,0.0,19.5,1111122 
NERRS,ioos:station:NOAA.NERRS:gndbcwq:1,2011-08-01T20:00:00Z,30.3836,-88.4364,0.0,13.6,1111122 
NERRS,ioos:station:NOAA.NERRS:gndbcwq:1,2011-08-01T21:00:00Z,30.3836,-88.4364,0.0,16.3,1111122 
NERRS,ioos:station:NOAA.NERRS:gndbcwq:1,2011-08-01T22:00:00Z,30.3836,-88.4364,0.0,13.4,1111122 
NERRS,ioos:station:NOAA.NERRS:gndbcwq:1,2011-08-01T23:00:00Z,30.3836,-88.4364,0.0,11.5,1111122 
NERRS,ioos:station:NOAA.NERRS:gndbcwq:1,2011-08-02T06:00:00Z,30.3836,-88.4364,0.0,8.3,1111122 
NERRS,ioos:station:NOAA.NERRS:gndbcwq:1,2011-08-02T07:00:00Z,30.3836,-88.4364,0.0,8.3,1111122 
NERRS,ioos:station:NOAA.NERRS:gndbcwq:1,2011-08-02T08:00:00Z,30.3836,-88.4364,0.0,10.7,1111122 
NERRS,ioos:station:NOAA.NERRS:gndbcwq:1,2011-08-02T09:00:00Z,30.3836,-88.4364,0.0,10.1,1111122 
NERRS,ioos:station:NOAA.NERRS:gndbcwq:1,2011-08-02T10:00:00Z,30.3836,-88.4364,0.0,8.2,1111122 
NERRS,ioos:station:NOAA.NERRS:gndbcwq:1,2011-08-02T11:00:00Z,30.3836,-88.4364,0.0,7.4,1111122 
NERRS,ioos:station:NOAA.NERRS:gndbcwq:1,2011-08-02T12:00:00Z,30.3836,-88.4364,0.0,8.9,1111122 
NERRS,ioos:station:NOAA.NERRS:gndbcwq:1,2011-08-02T13:00:00Z,30.3836,-88.4364,0.0,9.3,1111122 
NERRS,ioos:station:NOAA.NERRS:gndbcwq:1,2011-08-02T14:00:00Z,30.3836,-88.4364,0.0,11.0,1111122 
NERRS,ioos:station:NOAA.NERRS:gndbcwq:1,2011-08-02T15:00:00Z,30.3836,-88.4364,0.0,13.8,1111122 
NERRS,ioos:station:NOAA.NERRS:gndbcwq:1,2011-08-02T16:00:00Z,30.3836,-88.4364,0.0,15.3,1111122 
NERRS,ioos:station:NOAA.NERRS:gndbcwq:1,2011-08-02T17:00:00Z,30.3836,-88.4364,0.0,17.4,1111122 
NERRS,ioos:station:NOAA.NERRS:gndbcwq:1,2011-08-02T18:00:00Z,30.3836,-88.4364,0.0,17.4,1111122 
NERRS,ioos:station:NOAA.NERRS:gndbcwq:1,2011-08-02T19:00:00Z,30.3836,-88.4364,0.0,14.5,1111122 
NERRS,ioos:station:NOAA.NERRS:gndbcwq:1,2011-08-02T20:00:00Z,30.3836,-88.4364,0.0,13.5,1111122 
NERRS,ioos:station:NOAA.NERRS:gndbcwq:1,2011-08-02T21:00:00Z,30.3836,-88.4364,0.0,11.1,1111122 
NERRS,ioos:station:NOAA.NERRS:gndbcwq:1,2011-08-02T22:00:00Z,30.3836,-88.4364,0.0,10.4,1111122 
NERRS,ioos:station:NOAA.NERRS:gndbcwq:1,2011-08-02T23:00:00Z,30.3836,-88.4364,0.0,8.3,1111122 
NERRS,ioos:station:NOAA.NERRS:gndbcwq:1,2011-08-03T06:00:00Z,30.3836,-88.4364,0.0,7.5,1111122 
NERRS,ioos:station:NOAA.NERRS:gndbcwq:1,2011-08-03T07:00:00Z,30.3836,-88.4364,0.0,11.4,1111122 
NERRS,ioos:station:NOAA.NERRS:gndbcwq:1,2011-08-03T08:00:00Z,30.3836,-88.4364,0.0,10.3,1111122 
NERRS,ioos:station:NOAA.NERRS:gndbcwq:1,2011-08-03T09:00:00Z,30.3836,-88.4364,0.0,14.5,1111122 
NERRS,ioos:station:NOAA.NERRS:gndbcwq:1,2011-08-03T12:00:00Z,30.3836,-88.4364,0.0,5.9,1111122 
NERRS,ioos:station:NOAA.NERRS:gndbcwq:1,2011-08-03T13:00:00Z,30.3836,-88.4364,0.0,7.3,1111122 
NERRS,ioos:station:NOAA.NERRS:gndbcwq:1,2011-08-03T14:00:00Z,30.3836,-88.4364,0.0,7.9,1111122 
NERRS,ioos:station:NOAA.NERRS:gndbcwq:1,2011-08-03T15:00:00Z,30.3836,-88.4364,0.0,13.5,1111122 
NERRS,ioos:station:NOAA.NERRS:gndbcwq:1,2011-08-03T16:00:00Z,30.3836,-88.4364,0.0,16.1,1111122 
NERRS,ioos:station:NOAA.NERRS:gndbcwq:1,2011-08-03T17:00:00Z,30.3836,-88.4364,0.0,18.0,1111122 
NERRS,ioos:station:NOAA.NERRS:gndbcwq:1,2011-08-03T18:00:00Z,30.3836,-88.4364,0.0,18.0,1111122 
NERRS,ioos:station:NOAA.NERRS:gndbcwq:1,2011-08-03T19:00:00Z,30.3836,-88.4364,0.0,14.3,1111122 
NERRS,ioos:station:NOAA.NERRS:gndbcwq:1,2011-08-03T20:00:00Z,30.3836,-88.4364,0.0,10.4,1111122 
NERRS,ioos:station:NOAA.NERRS:gndbcwq:1,2011-08-03T21:00:00Z,30.3836,-88.4364,0.0,11.1,1111122 
NERRS,ioos:station:NOAA.NERRS:gndbcwq:1,2011-08-03T22:00:00Z,30.3836,-88.4364,0.0,12.0,1111122 
NERRS,ioos:station:NOAA.NERRS:gndbcwq:1,2011-08-03T23:00:00Z,30.3836,-88.4364,0.0,9.3,1111122 
NERRS,ioos:station:NOAA.NERRS:gndbcwq:1,2011-08-04T06:00:00Z,30.3836,-88.4364,0.0,14.6,1111122 
NERRS,ioos:station:NOAA.NERRS:gndbcwq:1,2011-08-04T07:00:00Z,30.3836,-88.4364,0.0,15.1,1111122 
NERRS,ioos:station:NOAA.NERRS:gndbcwq:1,2011-08-04T08:00:00Z,30.3836,-88.4364,0.0,15.4,1111122 
NERRS,ioos:station:NOAA.NERRS:gndbcwq:1,2011-08-04T09:00:00Z,30.3836,-88.4364,0.0,15.7,1111122 
NERRS,ioos:station:NOAA.NERRS:gndbcwq:1,2011-08-04T10:00:00Z,30.3836,-88.4364,0.0,16.2,1111122 
NERRS,ioos:station:NOAA.NERRS:gndbcwq:1,2011-08-04T11:00:00Z,30.3836,-88.4364,0.0,16.1,1111122 
NERRS,ioos:station:NOAA.NERRS:gndbcwq:1,2011-08-04T12:00:00Z,30.3836,-88.4364,0.0,8.2,1111122 
NERRS,ioos:station:NOAA.NERRS:gndbcwq:1,2011-08-04T13:00:00Z,30.3836,-88.4364,0.0,8.0,1111122 
NERRS,ioos:station:NOAA.NERRS:gndbcwq:1,2011-08-04T14:00:00Z,30.3836,-88.4364,0.0,8.1,1111122 
NERRS,ioos:station:NOAA.NERRS:gndbcwq:1,2011-08-04T15:00:00Z,30.3836,-88.4364,0.0,9.6,1111122 
NERRS,ioos:station:NOAA.NERRS:gndbcwq:1,2011-08-04T16:00:00Z,30.3836,-88.4364,0.0,9.4,1111122 
NERRS,ioos:station:NOAA.NERRS:gndbcwq:1,2011-08-04T17:00:00Z,30.3836,-88.4364,0.0,13.1,1111122 
NERRS,ioos:station:NOAA.NERRS:gndbcwq:1,2011-08-04T18:00:00Z,30.3836,-88.4364,0.0,17.4,1111122 
NERRS,ioos:station:NOAA.NERRS:gndbcwq:1,2011-08-04T19:00:00Z,30.3836,-88.4364,0.0,11.7,1111122 
NERRS,ioos:station:NOAA.NERRS:gndbcwq:1,2011-08-04T20:00:00Z,30.3836,-88.4364,0.0,8.7,1111122 
NERRS,ioos:station:NOAA.NERRS:gndbcwq:1,2011-08-04T21:00:00Z,30.3836,-88.4364,0.0,10.4,1111122 
NERRS,ioos:station:NOAA.NERRS:gndbcwq:1,2011-08-04T22:00:00Z,30.3836,-88.4364,0.0,11.6,1111122 
NERRS,ioos:station:NOAA.NERRS:gndbcwq:1,2011-08-04T23:00:00Z,30.3836,-88.4364,0.0,12.8,1111122 
NERRS,ioos:station:NOAA.NERRS:gndbcwq:1,2011-08-05T06:00:00Z,30.3836,-88.4364,0.0,14.6,1111122 
NERRS,ioos:station:NOAA.NERRS:gndbcwq:1,2011-08-05T07:00:00Z,30.3836,-88.4364,0.0,14.5,1111122 
NERRS,ioos:station:NOAA.NERRS:gndbcwq:1,2011-08-05T08:00:00Z,30.3836,-88.4364,0.0,16.4,1111122 
NERRS,ioos:station:NOAA.NERRS:gndbcwq:1,2011-08-05T09:00:00Z,30.3836,-88.4364,0.0,16.0,1111122 
NERRS,ioos:station:NOAA.NERRS:gndbcwq:1,2011-08-05T10:00:00Z,30.3836,-88.4364,0.0,16.6,1111122 
NERRS,ioos:station:NOAA.NERRS:gndbcwq:1,2011-08-05T11:00:00Z,30.3836,-88.4364,0.0,19.2,1111122 
NERRS,ioos:station:NOAA.NERRS:gndbcwq:1,2011-08-05T12:00:00Z,30.3836,-88.4364,0.0,19.9,1111122 
NERRS,ioos:station:NOAA.NERRS:gndbcwq:1,2011-08-05T13:00:00Z,30.3836,-88.4364,0.0,19.2,1111122 
NERRS,ioos:station:NOAA.NERRS:gndbcwq:1,2011-08-05T18:00:00Z,30.3836,-88.4364,0.0,13.2,1111122 
NERRS,ioos:station:NOAA.NERRS:gndbcwq:1,2011-08-05T19:00:00Z,30.3836,-88.4364,0.0,13.1,1111122 
NERRS,ioos:station:NOAA.NERRS:gndbcwq:1,2011-08-05T20:00:00Z,30.3836,-88.4364,0.0,13.0,1111122 
NERRS,ioos:station:NOAA.NERRS:gndbcwq:1,2011-08-05T21:00:00Z,30.3836,-88.4364,0.0,13.5,1111122 
NERRS,ioos:station:NOAA.NERRS:gndbcwq:1,2011-08-05T22:00:00Z,30.3836,-88.4364,0.0,13.0,1111122 
NERRS,ioos:station:NOAA.NERRS:gndbcwq:1,2011-08-05T23:00:00Z,30.3836,-88.4364,0.0,14.6,1111122 
NERRS,ioos:station:NOAA.NERRS:gndbcwq:1,2011-08-06T06:00:00Z,30.3836,-88.4364,0.0,18.4,1111122 
NERRS,ioos:station:NOAA.NERRS:gndbcwq:1,2011-08-06T07:00:00Z,30.3836,-88.4364,0.0,19.9,1111122 
NERRS,ioos:station:NOAA.NERRS:gndbcwq:1,2011-08-06T08:00:00Z,30.3836,-88.4364,0.0,23.0,1111122 
NERRS,ioos:station:NOAA.NERRS:gndbcwq:1,2011-08-06T09:00:00Z,30.3836,-88.4364,0.0,23.7,1111122 
NERRS,ioos:station:NOAA.NERRS:gndbcwq:1,2011-08-06T10:00:00Z,30.3836,-88.4364,0.0,23.7,1111122 
NERRS,ioos:station:NOAA.NERRS:gndbcwq:1,2011-08-06T11:00:00Z,30.3836,-88.4364,0.0,21.2,1111122 
NERRS,ioos:station:NOAA.NERRS:gndbcwq:1,2011-08-06T12:00:00Z,30.3836,-88.4364,0.0,19.2,1111122 
NERRS,ioos:station:NOAA.NERRS:gndbcwq:1,2011-08-06T13:00:00Z,30.3836,-88.4364,0.0,19.3,1111122 
NERRS,ioos:station:NOAA.NERRS:gndbcwq:1,2011-08-06T14:00:00Z,30.3836,-88.4364,0.0,18.3,1111122 
NERRS,ioos:station:NOAA.NERRS:gndbcwq:1,2011-08-07T17:00:00Z,30.3836,-88.4364,0.0,13.7,1111122 
NERRS,ioos:station:NOAA.NERRS:gndbcwq:1,2011-08-08T13:00:00Z,30.3836,-88.4364,0.0,17.6,1111122 
NERRS,ioos:station:NOAA.NERRS:gndbcwq:1,2011-08-08T14:00:00Z,30.3836,-88.4364,0.0,19.6,1111122 
NERRS,ioos:station:NOAA.NERRS:gndbcwq:1,2011-08-08T15:00:00Z,30.3836,-88.4364,0.0,20.3,1111122 
NERRS,ioos:station:NOAA.NERRS:gndbcwq:1,2011-08-09T10:00:00Z,30.3836,-88.4364,0.0,18.8,1111122 
NERRS,ioos:station:NOAA.NERRS:gndbcwq:1,2011-08-19T19:45:00Z,30.3836,-88.4364,0.0,19.8,1111122 
NERRS,ioos:station:NOAA.NERRS:gndbcwq:1,2011-08-19T20:45:00Z,30.3836,-88.4364,0.0,19.5,1111122 
NERRS,ioos:station:NOAA.NERRS:gndbcwq:1,2011-08-19T21:45:00Z,30.3836,-88.4364,0.0,19.4,1111122 
NERRS,ioos:station:NOAA.NERRS:gndbcwq:1,2011-08-19T22:45:00Z,30.3836,-88.4364,0.0,19.6,1111122 
NERRS,ioos:station:NOAA.NERRS:gndbcwq:1,2011-08-19T23:45:00Z,30.3836,-88.4364,0.0,20.0,1111122 
NERRS,ioos:station:NOAA.NERRS:gndbcwq:1,2011-08-20T06:45:00Z,30.3836,-88.4364,0.0,22.2,1111122 
NERRS,ioos:station:NOAA.NERRS:gndbcwq:1,2011-08-20T07:45:00Z,30.3836,-88.4364,0.0,22.2,1111122 
NERRS,ioos:station:NOAA.NERRS:gndbcwq:1,2011-08-20T08:45:00Z,30.3836,-88.4364,0.0,21.5,1111122 
NERRS,ioos:station:NOAA.NERRS:gndbcwq:1,2011-08-20T09:45:00Z,30.3836,-88.4364,0.0,21.3,1111122 
NERRS,ioos:station:NOAA.NERRS:gndbcwq:1,2011-08-20T10:45:00Z,30.3836,-88.4364,0.0,21.4,1111122 
NERRS,ioos:station:NOAA.NERRS:gndbcwq:1,2011-08-20T11:45:00Z,30.3836,-88.4364,0.0,19.8,1111122 
NERRS,ioos:station:NOAA.NERRS:gndbcwq:1,2011-08-20T12:45:00Z,30.3836,-88.4364,0.0,20.0,1111122 
NERRS,ioos:station:NOAA.NERRS:gndbcwq:1,2011-08-20T13:45:00Z,30.3836,-88.4364,0.0,19.7,1111122 
NERRS,ioos:station:NOAA.NERRS:gndbcwq:1,2011-08-20T14:45:00Z,30.3836,-88.4364,0.0,19.6,1111122 
NERRS,ioos:station:NOAA.NERRS:gndbcwq:1,2011-08-20T15:45:00Z,30.3836,-88.4364,0.0,19.0,1111122 
NERRS,ioos:station:NOAA.NERRS:gndbcwq:1,2011-08-20T16:45:00Z,30.3836,-88.4364,0.0,19.4,1111122 
NERRS,ioos:station:NOAA.NERRS:gndbcwq:1,2011-08-20T17:45:00Z,30.3836,-88.4364,0.0,19.6,1111122 
NERRS,ioos:station:NOAA.NERRS:gndbcwq:1,2011-08-20T18:45:00Z,30.3836,-88.4364,0.0,19.4,1111122 
NERRS,ioos:station:NOAA.NERRS:gndbcwq:1,2011-08-20T19:45:00Z,30.3836,-88.4364,0.0,19.6,1111122 
NERRS,ioos:station:NOAA.NERRS:gndbcwq:1,2011-08-20T20:45:00Z,30.3836,-88.4364,0.0,18.7,1111122 
NERRS,ioos:station:NOAA.NERRS:gndbcwq:1,2011-08-20T21:45:00Z,30.3836,-88.4364,0.0,18.7,1111122 
NERRS,ioos:station:NOAA.NERRS:gndbcwq:1,2011-08-20T22:45:00Z,30.3836,-88.4364,0.0,19.3,1111122 
NERRS,ioos:station:NOAA.NERRS:gndbcwq:1,2011-08-20T23:45:00Z,30.3836,-88.4364,0.0,19.6,1111122 
NERRS,ioos:station:NOAA.NERRS:gndbcwq:1,2011-08-21T06:45:00Z,30.3836,-88.4364,0.0,21.9,1111122 
NERRS,ioos:station:NOAA.NERRS:gndbcwq:1,2011-08-21T07:45:00Z,30.3836,-88.4364,0.0,22.1,1111122 
NERRS,ioos:station:NOAA.NERRS:gndbcwq:1,2011-08-21T08:45:00Z,30.3836,-88.4364,0.0,22.2,1111122 
NERRS,ioos:station:NOAA.NERRS:gndbcwq:1,2011-08-21T09:45:00Z,30.3836,-88.4364,0.0,22.0,1111122 
NERRS,ioos:station:NOAA.NERRS:gndbcwq:1,2011-08-21T10:45:00Z,30.3836,-88.4364,0.0,21.8,1111122 
NERRS,ioos:station:NOAA.NERRS:gndbcwq:1,2011-08-21T11:45:00Z,30.3836,-88.4364,0.0,21.1,1111122 
NERRS,ioos:station:NOAA.NERRS:gndbcwq:1,2011-08-21T12:45:00Z,30.3836,-88.4364,0.0,20.6,1111122 
NERRS,ioos:station:NOAA.NERRS:gndbcwq:1,2011-08-21T13:45:00Z,30.3836,-88.4364,0.0,20.2,1111122 
NERRS,ioos:station:NOAA.NERRS:gndbcwq:1,2011-08-21T14:45:00Z,30.3836,-88.4364,0.0,19.9,1111122 
NERRS,ioos:station:NOAA.NERRS:gndbcwq:1,2011-08-21T15:45:00Z,30.3836,-88.4364,0.0,19.9,1111122 
NERRS,ioos:station:NOAA.NERRS:gndbcwq:1,2011-08-21T16:45:00Z,30.3836,-88.4364,0.0,19.9,1111122 
NERRS,ioos:station:NOAA.NERRS:gndbcwq:1,2011-08-21T17:45:00Z,30.3836,-88.4364,0.0,19.5,1111122 
NERRS,ioos:station:NOAA.NERRS:gndbcwq:1,2011-08-21T18:45:00Z,30.3836,-88.4364,0.0,19.6,1111122 
NERRS,ioos:station:NOAA.NERRS:gndbcwq:1,2011-08-21T19:45:00Z,30.3836,-88.4364,0.0,19.7,1111122 
NERRS,ioos:station:NOAA.NERRS:gndbcwq:1,2011-08-21T20:45:00Z,30.3836,-88.4364,0.0,19.3,1111122 
NERRS,ioos:station:NOAA.NERRS:gndbcwq:1,2011-08-21T21:45:00Z,30.3836,-88.4364,0.0,18.6,1111122 
NERRS,ioos:station:NOAA.NERRS:gndbcwq:1,2011-08-21T22:45:00Z,30.3836,-88.4364,0.0,18.6,1111122 
NERRS,ioos:station:NOAA.NERRS:gndbcwq:1,2011-08-21T23:45:00Z,30.3836,-88.4364,0.0,19.4,1111122 
NERRS,ioos:station:NOAA.NERRS:gndbcwq:1,2011-08-22T06:45:00Z,30.3836,-88.4364,0.0,21.8,1111122 
NERRS,ioos:station:NOAA.NERRS:gndbcwq:1,2011-08-22T07:45:00Z,30.3836,-88.4364,0.0,22.3,1111122 
NERRS,ioos:station:NOAA.NERRS:gndbcwq:1,2011-08-22T08:45:00Z,30.3836,-88.4364,0.0,22.6,1111122 
NERRS,ioos:station:NOAA.NERRS:gndbcwq:1,2011-08-22T09:45:00Z,30.3836,-88.4364,0.0,22.3,1111122 
NERRS,ioos:station:NOAA.NERRS:gndbcwq:1,2011-08-22T10:45:00Z,30.3836,-88.4364,0.0,22.1,1111122 
NERRS,ioos:station:NOAA.NERRS:gndbcwq:1,2011-08-22T11:00:00Z,30.3836,-88.4364,0.0,22.2,1111122 
NERRS,ioos:station:NOAA.NERRS:gndbcwq:1,2011-08-22T12:45:00Z,30.3836,-88.4364,0.0,21.6,1111122 
NERRS,ioos:station:NOAA.NERRS:gndbcwq:1,2011-08-22T13:45:00Z,30.3836,-88.4364,0.0,20.8,1111122 
NERRS,ioos:station:NOAA.NERRS:gndbcwq:1,2011-08-22T14:45:00Z,30.3836,-88.4364,0.0,24.1,1111122 
NERRS,ioos:station:NOAA.NERRS:gndbcwq:1,2011-08-22T15:45:00Z,30.3836,-88.4364,0.0,23.2,1111122 
NERRS,ioos:station:NOAA.NERRS:gndbcwq:1,2011-08-22T16:45:00Z,30.3836,-88.4364,0.0,22.7,1111122 
NERRS,ioos:station:NOAA.NERRS:gndbcwq:1,2011-08-22T17:45:00Z,30.3836,-88.4364,0.0,22.0,1111122 
NERRS,ioos:station:NOAA.NERRS:gndbcwq:1,2011-08-22T18:45:00Z,30.3836,-88.4364,0.0,22.0,1111122 
NERRS,ioos:station:NOAA.NERRS:gndbcwq:1,2011-08-22T19:45:00Z,30.3836,-88.4364,0.0,22.3,1111122 
NERRS,ioos:station:NOAA.NERRS:gndbcwq:1,2011-08-22T20:45:00Z,30.3836,-88.4364,0.0,22.5,1111122 
NERRS,ioos:station:NOAA.NERRS:gndbcwq:1,2011-08-22T21:45:00Z,30.3836,-88.4364,0.0,22.3,1111122 
NERRS,ioos:station:NOAA.NERRS:gndbcwq:1,2011-08-22T22:45:00Z,30.3836,-88.4364,0.0,21.6,1111122 
NERRS,ioos:station:NOAA.NERRS:gndbcwq:1,2011-08-22T23:45:00Z,30.3836,-88.4364,0.0,22.8,1111122 
NERRS,ioos:station:NOAA.NERRS:gndbcwq:1,2011-08-23T06:00:00Z,30.3836,-88.4364,0.0,24.9,1111122 
NERRS,ioos:station:NOAA.NERRS:gndbcwq:1,2011-08-23T06:45:00Z,30.3836,-88.4364,0.0,25.5,1111122 
NERRS,ioos:station:NOAA.NERRS:gndbcwq:1,2011-08-23T07:45:00Z,30.3836,-88.4364,0.0,26.0,1111122 
NERRS,ioos:station:NOAA.NERRS:gndbcwq:1,2011-08-23T09:45:00Z,30.3836,-88.4364,0.0,26.8,1111122 
NERRS,ioos:station:NOAA.NERRS:gndbcwq:1,2011-08-23T10:45:00Z,30.3836,-88.4364,0.0,26.9,1111122 
NERRS,ioos:station:NOAA.NERRS:gndbcwq:1,2011-08-23T11:45:00Z,30.3836,-88.4364,0.0,26.4,1111122 
NERRS,ioos:station:NOAA.NERRS:gndbcwq:1,2011-08-23T12:45:00Z,30.3836,-88.4364,0.0,26.5,1111122 
NERRS,ioos:station:NOAA.NERRS:gndbcwq:1,2011-08-23T13:45:00Z,30.3836,-88.4364,0.0,25.9,1111122 
NERRS,ioos:station:NOAA.NERRS:gndbcwq:1,2011-08-23T14:45:00Z,30.3836,-88.4364,0.0,25.6,1111122 
NERRS,ioos:station:NOAA.NERRS:gndbcwq:1,2011-08-23T15:45:00Z,30.3836,-88.4364,0.0,25.0,1111122 
NERRS,ioos:station:NOAA.NERRS:gndbcwq:1,2011-08-23T16:45:00Z,30.3836,-88.4364,0.0,24.4,1111122 
NERRS,ioos:station:NOAA.NERRS:gndbcwq:1,2011-08-23T17:45:00Z,30.3836,-88.4364,0.0,23.8,1111122 
NERRS,ioos:station:NOAA.NERRS:gndbcwq:1,2011-08-23T18:45:00Z,30.3836,-88.4364,0.0,23.2,1111122 
NERRS,ioos:station:NOAA.NERRS:gndbcwq:1,2011-08-23T19:45:00Z,30.3836,-88.4364,0.0,23.0,1111122 
NERRS,ioos:station:NOAA.NERRS:gndbcwq:1,2011-08-23T20:45:00Z,30.3836,-88.4364,0.0,22.5,1111122 
NERRS,ioos:station:NOAA.NERRS:gndbcwq:1,2011-08-23T21:45:00Z,30.3836,-88.4364,0.0,22.3,1111122 
NERRS,ioos:station:NOAA.NERRS:gndbcwq:1,2011-08-23T22:45:00Z,30.3836,-88.4364,0.0,22.9,1111122 
NERRS,ioos:station:NOAA.NERRS:gndbcwq:1,2011-08-23T23:45:00Z,30.3836,-88.4364,0.0,23.2,1111122 
NERRS,ioos:station:NOAA.NERRS:gndbcwq:1,2011-08-24T06:45:00Z,30.3836,-88.4364,0.0,24.8,1111122 
NERRS,ioos:station:NOAA.NERRS:gndbcwq:1,2011-08-24T07:45:00Z,30.3836,-88.4364,0.0,25.9,1111122 
NERRS,ioos:station:NOAA.NERRS:gndbcwq:1,2011-08-24T08:00:00Z,30.3836,-88.4364,0.0,26.0,1111122 
NERRS,ioos:station:NOAA.NERRS:gndbcwq:1,2011-08-24T08:30:00Z,30.3836,-88.4364,0.0,26.3,1111122 
NERRS,ioos:station:NOAA.NERRS:gndbcwq:1,2011-08-24T08:45:00Z,30.3836,-88.4364,0.0,26.5,1111122 
NERRS,ioos:station:NOAA.NERRS:gndbcwq:1,2011-08-24T09:00:00Z,30.3836,-88.4364,0.0,26.5,1111122 
NERRS,ioos:station:NOAA.NERRS:gndbcwq:1,2011-08-24T11:00:00Z,30.3836,-88.4364,0.0,28.2,1111122 
NERRS,ioos:station:NOAA.NERRS:gndbcwq:1,2011-08-24T14:00:00Z,30.3836,-88.4364,0.0,27.2,1111122 
NERRS,ioos:station:NOAA.NERRS:gndbcwq:1,2011-08-24T15:30:00Z,30.3836,-88.4364,0.0,27.0,1111122 
NERRS,ioos:station:NOAA.NERRS:gndbcwq:1,2011-08-24T16:45:00Z,30.3836,-88.4364,0.0,26.4,1111122 
NERRS,ioos:station:NOAA.NERRS:gndbcwq:1,2011-08-24T17:45:00Z,30.3836,-88.4364,0.0,25.7,1111122 
NERRS,ioos:station:NOAA.NERRS:gndbcwq:1,2011-08-24T18:45:00Z,30.3836,-88.4364,0.0,24.8,1111122 
NERRS,ioos:station:NOAA.NERRS:gndbcwq:1,2011-08-24T19:45:00Z,30.3836,-88.4364,0.0,22.3,1111122 
NERRS,ioos:station:NOAA.NERRS:gndbcwq:1,2011-08-24T20:45:00Z,30.3836,-88.4364,0.0,21.6,1111122 
NERRS,ioos:station:NOAA.NERRS:gndbcwq:1,2011-08-24T21:45:00Z,30.3836,-88.4364,0.0,22.0,1111122 
NERRS,ioos:station:NOAA.NERRS:gndbcwq:1,2011-08-24T22:45:00Z,30.3836,-88.4364,0.0,20.9,1111122 
NERRS,ioos:station:NOAA.NERRS:gndbcwq:1,2011-08-24T23:45:00Z,30.3836,-88.4364,0.0,22.1,1111122 
NERRS,ioos:station:NOAA.NERRS:gndbcwq:1,2011-08-25T06:45:00Z,30.3836,-88.4364,0.0,24.7,1111122 
NERRS,ioos:station:NOAA.NERRS:gndbcwq:1,2011-08-25T07:45:00Z,30.3836,-88.4364,0.0,25.3,1111122 
NERRS,ioos:station:NOAA.NERRS:gndbcwq:1,2011-08-25T08:45:00Z,30.3836,-88.4364,0.0,26.0,1111122 
NERRS,ioos:station:NOAA.NERRS:gndbcwq:1,2011-08-25T09:45:00Z,30.3836,-88.4364,0.0,26.7,1111122 
NERRS,ioos:station:NOAA.NERRS:gndbcwq:1,2011-08-25T10:45:00Z,30.3836,-88.4364,0.0,27.5,1111122 
NERRS,ioos:station:NOAA.NERRS:gndbcwq:1,2011-08-25T11:30:00Z,30.3836,-88.4364,0.0,28.0,1111122 
NERRS,ioos:station:NOAA.NERRS:gndbcwq:1,2011-08-25T12:45:00Z,30.3836,-88.4364,0.0,28.4,1111122 
NERRS,ioos:station:NOAA.NERRS:gndbcwq:1,2011-08-25T13:45:00Z,30.3836,-88.4364,0.0,27.9,1111122 
NERRS,ioos:station:NOAA.NERRS:gndbcwq:1,2011-08-25T14:45:00Z,30.3836,-88.4364,0.0,27.0,1111122 
NERRS,ioos:station:NOAA.NERRS:gndbcwq:1,2011-08-25T15:45:00Z,30.3836,-88.4364,0.0,27.0,1111122 
NERRS,ioos:station:NOAA.NERRS:gndbcwq:1,2011-08-25T16:45:00Z,30.3836,-88.4364,0.0,26.6,1111122 
NERRS,ioos:station:NOAA.NERRS:gndbcwq:1,2011-08-25T17:45:00Z,30.3836,-88.4364,0.0,25.6,1111122 
NERRS,ioos:station:NOAA.NERRS:gndbcwq:1,2011-08-25T18:45:00Z,30.3836,-88.4364,0.0,25.1,1111122 
NERRS,ioos:station:NOAA.NERRS:gndbcwq:1,2011-08-25T19:45:00Z,30.3836,-88.4364,0.0,23.5,1111122 
NERRS,ioos:station:NOAA.NERRS:gndbcwq:1,2011-08-25T20:45:00Z,30.3836,-88.4364,0.0,22.6,1111122 
NERRS,ioos:station:NOAA.NERRS:gndbcwq:1,2011-08-25T21:45:00Z,30.3836,-88.4364,0.0,22.0,1111122 
NERRS,ioos:station:NOAA.NERRS:gndbcwq:1,2011-08-25T22:45:00Z,30.3836,-88.4364,0.0,21.6,1111122 
NERRS,ioos:station:NOAA.NERRS:gndbcwq:1,2011-08-25T23:45:00Z,30.3836,-88.4364,0.0,21.5,1111122 
NERRS,ioos:station:NOAA.NERRS:gndbcwq:1,2011-08-26T06:30:00Z,30.3836,-88.4364,0.0,24.9,1111122 
NERRS,ioos:station:NOAA.NERRS:gndbcwq:1,2011-08-26T07:00:00Z,30.3836,-88.4364,0.0,25.2,1111122 
NERRS,ioos:station:NOAA.NERRS:gndbcwq:1,2011-08-26T07:45:00Z,30.3836,-88.4364,0.0,25.4,1111122 
NERRS,ioos:station:NOAA.NERRS:gndbcwq:1,2011-08-26T08:00:00Z,30.3836,-88.4364,0.0,25.4,1111122 
NERRS,ioos:station:NOAA.NERRS:gndbcwq:1,2011-08-26T08:30:00Z,30.3836,-88.4364,0.0,25.7,1111122 
NERRS,ioos:station:NOAA.NERRS:gndbcwq:1,2011-08-26T09:00:00Z,30.3836,-88.4364,0.0,25.9,1111122 
NERRS,ioos:station:NOAA.NERRS:gndbcwq:1,2011-08-26T10:15:00Z,30.3836,-88.4364,0.0,26.6,1111122 
NERRS,ioos:station:NOAA.NERRS:gndbcwq:1,2011-08-26T13:00:00Z,30.3836,-88.4364,0.0,28.0,1111122 
NERRS,ioos:station:NOAA.NERRS:gndbcwq:1,2011-08-26T15:45:00Z,30.3836,-88.4364,0.0,26.4,1111122 
NERRS,ioos:station:NOAA.NERRS:gndbcwq:1,2011-08-26T16:45:00Z,30.3836,-88.4364,0.0,26.1,1111122 
NERRS,ioos:station:NOAA.NERRS:gndbcwq:1,2011-08-26T17:45:00Z,30.3836,-88.4364,0.0,26.1,1111122 
NERRS,ioos:station:NOAA.NERRS:gndbcwq:1,2011-08-26T18:45:00Z,30.3836,-88.4364,0.0,25.4,1111122 
NERRS,ioos:station:NOAA.NERRS:gndbcwq:1,2011-08-26T19:45:00Z,30.3836,-88.4364,0.0,23.5,1111122 
NERRS,ioos:station:NOAA.NERRS:gndbcwq:1,2011-08-26T20:45:00Z,30.3836,-88.4364,0.0,22.8,1111122 
NERRS,ioos:station:NOAA.NERRS:gndbcwq:1,2011-08-26T21:45:00Z,30.3836,-88.4364,0.0,22.2,1111122 
NERRS,ioos:station:NOAA.NERRS:gndbcwq:1,2011-08-26T22:45:00Z,30.3836,-88.4364,0.0,22.1,1111122 
NERRS,ioos:station:NOAA.NERRS:gndbcwq:1,2011-08-26T23:45:00Z,30.3836,-88.4364,0.0,22.1,1111122 
NERRS,ioos:station:NOAA.NERRS:gndbcwq:1,2011-08-27T06:45:00Z,30.3836,-88.4364,0.0,23.9,1111122 
NERRS,ioos:station:NOAA.NERRS:gndbcwq:1,2011-08-27T07:45:00Z,30.3836,-88.4364,0.0,23.9,1111122 
NERRS,ioos:station:NOAA.NERRS:gndbcwq:1,2011-08-27T08:15:00Z,30.3836,-88.4364,0.0,24.4,1111122 
NERRS,ioos:station:NOAA.NERRS:gndbcwq:1,2011-08-27T09:45:00Z,30.3836,-88.4364,0.0,24.9,1111122 
NERRS,ioos:station:NOAA.NERRS:gndbcwq:1,2011-08-27T10:45:00Z,30.3836,-88.4364,0.0,25.4,1111122 
NERRS,ioos:station:NOAA.NERRS:gndbcwq:1,2011-08-27T11:45:00Z,30.3836,-88.4364,0.0,26.1,1111122 
NERRS,ioos:station:NOAA.NERRS:gndbcwq:1,2011-08-27T12:45:00Z,30.3836,-88.4364,0.0,26.7,1111122 
NERRS,ioos:station:NOAA.NERRS:gndbcwq:1,2011-08-27T13:45:00Z,30.3836,-88.4364,0.0,27.1,1111122 
NERRS,ioos:station:NOAA.NERRS:gndbcwq:1,2011-08-27T14:45:00Z,30.3836,-88.4364,0.0,27.5,1111122 
NERRS,ioos:station:NOAA.NERRS:gndbcwq:1,2011-08-27T15:45:00Z,30.3836,-88.4364,0.0,27.1,1111122 
NERRS,ioos:station:NOAA.NERRS:gndbcwq:1,2011-08-27T16:45:00Z,30.3836,-88.4364,0.0,26.5,1111122 
NERRS,ioos:station:NOAA.NERRS:gndbcwq:1,2011-08-27T17:45:00Z,30.3836,-88.4364,0.0,26.5,1111122 
NERRS,ioos:station:NOAA.NERRS:gndbcwq:1,2011-08-27T18:45:00Z,30.3836,-88.4364,0.0,26.1,1111122 
NERRS,ioos:station:NOAA.NERRS:gndbcwq:1,2011-08-27T19:45:00Z,30.3836,-88.4364,0.0,25.7,1111122 
NERRS,ioos:station:NOAA.NERRS:gndbcwq:1,2011-08-27T20:45:00Z,30.3836,-88.4364,0.0,23.7,1111122 
NERRS,ioos:station:NOAA.NERRS:gndbcwq:1,2011-08-27T21:45:00Z,30.3836,-88.4364,0.0,23.3,1111122 
NERRS,ioos:station:NOAA.NERRS:gndbcwq:1,2011-08-27T22:45:00Z,30.3836,-88.4364,0.0,22.1,1111122 
NERRS,ioos:station:NOAA.NERRS:gndbcwq:1,2011-08-27T23:45:00Z,30.3836,-88.4364,0.0,22.0,1111122 
NERRS,ioos:station:NOAA.NERRS:gndbcwq:1,2011-08-28T06:45:00Z,30.3836,-88.4364,0.0,23.5,1111122 
NERRS,ioos:station:NOAA.NERRS:gndbcwq:1,2011-08-28T07:45:00Z,30.3836,-88.4364,0.0,23.3,1111122 
NERRS,ioos:station:NOAA.NERRS:gndbcwq:1,2011-08-28T08:45:00Z,30.3836,-88.4364,0.0,23.5,1111122 
NERRS,ioos:station:NOAA.NERRS:gndbcwq:1,2011-08-28T09:45:00Z,30.3836,-88.4364,0.0,23.4,1111122 